Tillbaka till svenska Fidonet
English   Information   Debug  
FILM   0/18
FNEWS_PUBLISH   4593
FN_SYSOP   41836
FN_SYSOP_OLD1   71952
FTP_FIDO   0/2
FTSC_PUBLIC   0/13888
FUNNY   0/4886
GENEALOGY.EUR   0/71
GET_INFO   105
GOLDED   0/408
HAM   0/16151
HOLYSMOKE   0/6791
HOT_SITES   0/1
HTMLEDIT   0/71
HUB203   466
HUB_100   264
HUB_400   39
HUMOR   0/29
IC   0/2851
INTERNET   0/424
INTERUSER   0/3
IP_CONNECT   719
JAMNNTPD   0/233
JAMTLAND   0/47
KATTY_KORNER   0/41
LAN   0/16
LINUX-USER   0/19
LINUXHELP   0/1155
LINUX   0/22192
LINUX_BBS   0/957
mail   18.68
mail_fore_ok   249
MENSA   0/341
MODERATOR   0/102
MONTE   0/992
MOSCOW_OKLAHOMA   0/1245
MUFFIN   0/783
MUSIC   0/321
N203_STAT   938
N203_SYSCHAT   313
NET203   321
NET204   69
NET_DEV   0/10
NORD.ADMIN   0/101
NORD.CHAT   0/2572
NORD.FIDONET   189
NORD.HARDWARE   0/28
NORD.KULTUR   0/114
NORD.PROG   0/32
NORD.SOFTWARE   0/88
NORD.TEKNIK   0/58
NORD   0/453
OCCULT_CHAT   0/93
OS2BBS   0/787
OS2DOSBBS   0/580
OS2HW   0/42
OS2INET   0/37
OS2LAN   0/134
OS2PROG   0/36
OS2REXX   0/113
OS2USER-L   207
OS2   0/4804
OSDEBATE   0/18996
PASCAL   0/490
PERL   0/457
PHP   0/45
POINTS   0/405
POLITICS   0/29554
POL_INC   0/14731
PSION   103
R20_ADMIN   1129
R20_AMATORRADIO   0/2
R20_BEST_OF_FIDONET   14
R20_CHAT   0/893
R20_DEPP   0/3
R20_DEV   399
R20_ECHO2   1513
R20_ECHOPRES   0/35
R20_ESTAT   0/719
R20_FIDONETPROG...
...RAM.MYPOINT
  0/2
R20_FIDONETPROGRAM   0/22
R20_FIDONET   0/248
R20_FILEFIND   0/24
R20_FILEFOUND   0/22
R20_HIFI   0/3
R20_INFO2   3404
R20_INTERNET   0/12940
R20_INTRESSE   0/60
R20_INTR_KOM   0/99
R20_KANDIDAT.CHAT   42
R20_KANDIDAT   28
R20_KOM_DEV   112
R20_KONTROLL   0/13360
R20_KORSET   0/18
R20_LOKALTRAFIK   0/24
R20_MODERATOR   0/1852
R20_NC   76
R20_NET200   245
R20_NETWORK.OTH...
...ERNETS
  0/13
R20_OPERATIVSYS...
...TEM.LINUX
  0/44
R20_PROGRAMVAROR   0/1
R20_REC2NEC   534
R20_SFOSM   0/341
R20_SF   0/108
R20_SPRAK.ENGLISH   0/1
R20_SQUISH   107
R20_TEST   2
R20_WORST_OF_FIDONET   20
RAR   0/9
RA_MULTI   106
RA_UTIL   0/162
REGCON.EUR   0/2066
REGCON   0/13
SCIENCE   0/1206
SF   0/239
SHAREWARE_SUPPORT   0/5146
SHAREWRE   0/14
SIMPSONS   0/169
STATS_OLD1   0/2539.065
STATS_OLD2   0/2530
STATS_OLD3   0/2395.095
STATS_OLD4   0/1692.25
SURVIVOR   0/495
SYSOPS_CORNER   0/3
SYSOP   0/84
TAGLINES   0/112
TEAMOS2   0/4530
TECH   0/2617
TEST.444   0/105
TRAPDOOR   0/19
TREK   0/755
TUB   0/290
UFO   0/40
UNIX   0/1316
USA_EURLINK   0/102
USR_MODEMS   0/1
VATICAN   0/2740
VIETNAM_VETS   0/14
VIRUS   0/378
VIRUS_INFO   0/201
VISUAL_BASIC   0/473
WHITEHOUSE   0/5187
WIN2000   0/101
WIN32   0/30
WIN95   0/4291
WIN95_OLD1   0/70272
WINDOWS   0/1517
WWB_SYSOP   0/419
WWB_TECH   0/810
ZCC-PUBLIC   0/1
ZEC   4

 
4DOS   0/134
ABORTION   0/7
ALASKA_CHAT   0/506
ALLFIX_FILE   0/1313
ALLFIX_FILE_OLD1   0/7997
ALT_DOS   0/152
AMATEUR_RADIO   0/1039
AMIGASALE   0/14
AMIGA   0/331
AMIGA_INT   0/1
AMIGA_PROG   0/20
AMIGA_SYSOP   0/26
ANIME   0/15
ARGUS   0/924
ASCII_ART   0/340
ASIAN_LINK   0/651
ASTRONOMY   0/417
AUDIO   0/92
AUTOMOBILE_RACING   0/105
BABYLON5   0/17862
BAG   135
BATPOWER   0/361
BBBS.ENGLISH   0/382
BBSLAW   0/109
BBS_ADS   0/5290
BBS_INTERNET   0/507
BIBLE   162/3563
BINKD   0/1119
BINKLEY   0/215
BLUEWAVE   0/2173
CABLE_MODEMS   0/25
CBM   0/46
CDRECORD   0/66
CDROM   0/20
CLASSIC_COMPUTER   0/378
COMICS   0/15
CONSPRCY   0/899
COOKING   36740
COOKING_OLD1   0/24719
COOKING_OLD2   0/40862
COOKING_OLD3   0/37489
COOKING_OLD4   0/35496
COOKING_OLD5   9370
C_ECHO   0/189
C_PLUSPLUS   0/31
DIRTY_DOZEN   0/201
DOORGAMES   0/2120
DOS_INTERNET   0/196
duplikat   6002
ECHOLIST   0/18295
EC_SUPPORT   0/318
ELECTRONICS   0/359
ELEKTRONIK.GER   1534
ENET.LINGUISTIC   0/13
ENET.POLITICS   0/4
ENET.SOFT   0/11701
ENET.SYSOP   34098
ENET.TALKS   0/32
ENGLISH_TUTOR   0/2000
EVOLUTION   0/1335
FDECHO   0/217
FDN_ANNOUNCE   0/7068
FIDONEWS   24399
FIDONEWS_OLD1   0/49742
FIDONEWS_OLD2   0/35949
FIDONEWS_OLD3   0/30874
FIDONEWS_OLD4   0/37224
FIDO_SYSOP   12854
FIDO_UTIL   0/180
FILEFIND   0/209
FILEGATE   0/212
Möte HAM, 16151 texter
 lista första sista föregående nästa
Text 3472, 898 rader
Skriven 2010-01-29 00:30:21 av Amsat List (1:323/120.0)
Ärende: [keps]  orb10028.amsa
=============================
[keps]  orb10028.amsa

Return-Path: <keps-bounces@amsat.org>
X-Rcpt: craig.healy@chowda.com
X-UIDL: 1264741415.5238

SB KEPS @ AMSAT  $ORB10028.O
Orbital Elements  10028.OSCAR

HR AMSAT ORBITAL ELEMENTS FOR OSCAR SATELLITES
FROM WA5QGD FORT WORTH,TX January 28, 2010
Send Subscribe/unsubscribe to KEPS at 
http://www.amsat.org/mailman/listinfo/keps
BID: ORB10028.O
TO ALL RADIO AMATEURS BT

Satellite: AO-07
Catalog number: 07530
Epoch time:      10027.66381990
Element set:    0691
Inclination:      101.4121 deg
RA of node:       048.9412 deg
Eccentricity:    0.0012004
Arg of perigee:   188.8786 deg
Mean anomaly:     171.2068 deg
Mean motion:   12.53577472 rev/day
Decay rate:       -2.7e-07 rev/day^2
Epoch rev:           61084
Checksum:              289

Satellite: FO-29
Catalog number: 24278
Epoch time:      10028.63161556
Element set:     232
Inclination:      098.5235 deg
RA of node:       236.9937 deg
Eccentricity:    0.0351133
Arg of perigee:   125.7991 deg
Mean anomaly:     237.6319 deg
Mean motion:   13.52947152 rev/day
Decay rate:       -2.2e-07 rev/day^2
Epoch rev:           66423
Checksum:              313

Satellite: SO-33
Catalog number: 25509
Epoch time:      10028.75033867
Element set:     638
Inclination:      031.4298 deg
RA of node:       217.0252 deg
Eccentricity:    0.0354186
Arg of perigee:   150.8244 deg
Mean anomaly:     211.2850 deg
Mean motion:   14.28283266 rev/day
Decay rate:       3.25e-06 rev/day^2
Epoch rev:           58810
Checksum:              294

Satellite: RS-22
Catalog number: 27939
Epoch time:      10028.57059667
Element set:     998
Inclination:      097.9133 deg
RA of node:       259.8071 deg
Eccentricity:    0.0014043
Arg of perigee:   137.2453 deg
Mean anomaly:     222.9856 deg
Mean motion:   14.63376686 rev/day
Decay rate:       1.11e-06 rev/day^2
Epoch rev:           33853
Checksum:              336

Satellite: VO-52
Catalog number: 28650
Epoch time:      10027.80464366
Element set:    0421
Inclination:      097.7133 deg
RA of node:       086.5844 deg
Eccentricity:    0.0027346
Arg of perigee:   018.2933 deg
Mean anomaly:     341.9244 deg
Mean motion:   14.81674687 rev/day
Decay rate:       4.22e-06 rev/day^2
Epoch rev:           25590
Checksum:              313

Satellite: SO-67
Catalog number: 35870
Epoch time:      10028.20863755
Element set:     393
Inclination:      097.3535 deg
RA of node:       080.6678 deg
Eccentricity:    0.0011569
Arg of perigee:   180.8852 deg
Mean anomaly:     249.3848 deg
Mean motion:   15.22851255 rev/day
Decay rate:       -2.4e-07 rev/day^2
Epoch rev:            2016
Checksum:              320

Satellite: HO-68
Catalog number: 36122
Epoch time:      10028.24111825
Element set:     120
Inclination:      100.4904 deg
RA of node:       089.9827 deg
Eccentricity:    0.0007278
Arg of perigee:   295.9666 deg
Mean anomaly:     064.0683 deg
Mean motion:   13.16279814 rev/day
Decay rate:       -4.5e-07 rev/day^2
Epoch rev:             580
Checksum:              297

/EX
SB KEPS @ AMSAT  $ORB10028.D
Orbital Elements  10028.MICROS

HR AMSAT ORBITAL ELEMENTS FOR THE MICROSATS
FROM WA5QGD FORT WORTH,TX January 28, 2010
Send Subscribe/unsubscribe to KEPS at 
http://www.amsat.org/mailman/listinfo/keps
BID: ORB10028.D
TO ALL RADIO AMATEURS BT

Satellite: UO-11
Catalog number: 14781
Epoch time:      10027.71435420
Element set:     160
Inclination:      098.0768 deg
RA of node:       078.8877 deg
Eccentricity:    0.0008806
Arg of perigee:   339.1780 deg
Mean anomaly:     020.9074 deg
Mean motion:   14.79764315 rev/day
Decay rate:       3.21e-06 rev/day^2
Epoch rev:           39103
Checksum:              303

Satellite: AO-16
Catalog number: 20439
Epoch time:      10028.63915265
Element set:     808
Inclination:      098.3131 deg
RA of node:       352.1787 deg
Eccentricity:    0.0010250
Arg of perigee:   217.7078 deg
Mean anomaly:     142.3381 deg
Mean motion:   14.31846569 rev/day
Decay rate:        3.2e-07 rev/day^2
Epoch rev:            4541
Checksum:              286

Satellite: LO-19
Catalog number: 20442
Epoch time:      10028.58952484
Element set:     719
Inclination:      098.2741 deg
RA of node:       358.5000 deg
Eccentricity:    0.0011348
Arg of perigee:   212.6406 deg
Mean anomaly:     147.4061 deg
Mean motion:   14.32079297 rev/day
Decay rate:       -2.5e-07 rev/day^2
Epoch rev:            4557
Checksum:              292

Satellite: AO-27
Catalog number: 22825
Epoch time:      10027.79361939
Element set:     443
Inclination:      098.4698 deg
RA of node:       339.5015 deg
Eccentricity:    0.0007862
Arg of perigee:   327.8500 deg
Mean anomaly:     032.2196 deg
Mean motion:   14.29285059 rev/day
Decay rate:        7.5e-07 rev/day^2
Epoch rev:           85199
Checksum:              337

Satellite: IO-26
Catalog number: 22826
Epoch time:      10027.81411495
Element set:     177
Inclination:      098.4624 deg
RA of node:       340.1776 deg
Eccentricity:    0.0008441
Arg of perigee:   323.1748 deg
Mean anomaly:     036.8848 deg
Mean motion:   14.29538956 rev/day
Decay rate:        2.9e-07 rev/day^2
Epoch rev:           85210
Checksum:              319

Satellite: GO-32
Catalog number: 25397
Epoch time:      10027.84123431
Element set:      98
Inclination:      098.3172 deg
RA of node:       043.0027 deg
Eccentricity:    0.0001008
Arg of perigee:   004.7754 deg
Mean anomaly:     355.3420 deg
Mean motion:   14.23170554 rev/day
Decay rate:        4.4e-07 rev/day^2
Epoch rev:           60008
Checksum:              253

